www.pogodaiklimat.ru

Погода и климат >> Архив погоды >> Мексика >> Monclova


ПОГОДА в Monclova

  • Прогноз погоды в Monclova
  • Монитор погоды в Monclova
  • Климат города

АРХИВ ПОГОДЫ в Monclova

Время (UTC), дата Ветер
(напр.,м/с)
 
Видим.   Явления Облачность Т
(С)
Тd
(С)
f
(%)
Тe
(С)
Тes
(С)
Комфортность P
(гПа)
Po
(гПа)
Тmin
(С)
Tmax
(С)
R
(мм)
R24
(мм)
S
(см)
21 18.05 СВ 5 12 км ясно +40.4 +16.0 24 +42 +51 опасность
перегрева
1003.1 936.7
00 19.05 СВ 3 12 км 4/4 600 м
[Sc diur, vesp]
+39.8 +12.5 20 +39 +41 очень
жарко
1000.4 934.9 +24.0 +41.5
03 19.05 Ю 4 4000 м ясно +33.0 +14.6 33 +35 +35 душно 1002.7 937.5
09 19.05 З 1 4000 м ясно +27.6 +15.3 47 +30 +30 жарко 1006.7 940.6
12 19.05 СВ 2 4000 м ясно +24.0 +13.8 53 +26 +26 жарко 1008.8 941.9 +23.6 +41.5
15 19.05 СВ 1 12 км ясно +26.6 +15.9 52 +30 +40 душно 1009.5 942.0
18 19.05 СВ 1 12 км ясно +33.2 +18.1 41 +38 +62 опасность
солнечного
удара
1009.0 941.5 +23.2 +33.8
21 19.05 С 1 12 км ясно +36.8 +17.8 33 +40 +59 опасность
солнечного
удара
1007.3 940.3
00 20.05 С 2 12 км ясно +37.0 +17.4 32 +40 +43 очень
душно
1003.8 937.6 +23.2 +37.7
03 20.05 Ю 4 4000 м ясно +32.2 +18.8 45 +37 +37 очень
душно
1004.6 938.8
06 20.05 З 1 4000 м ясно +29.4 +18.4 52 +34 +34 очень
душно
1007.9 941.9 +23.2 +37.7
09 20.05 СЗ 2 4000 м ясно +25.8 +19.7 69 +31 +31 очень
душно
1009.9 943.3
12 20.05 З 1 4000 м 10/10 300 м
[Frnb]
+24.4 +19.6 75 +30 +30 очень
душно
1011.3 943.9 +24.0 +37.7
15 20.05 С 1 10 км 10/10 300 м
[Frnb]
+25.5 +20.3 73 +31 +31 очень
душно
1014.3 946.2
18 20.05 С 2 12 км 9/9 600 м
[Cu med, cong Ac As]
+29.9 +20.4 57 +37 +39 очень
душно
1013.8 945.7 +24.0 +30.3
21 20.05 С 3 12 км 10/5 600 м
[Cu med, cong Ac As]
+32.6 +19.4 46 +38 +40 очень
душно
1011.4 943.8
00 21.05 В 3 12 км 9/3 600 м
[Cu med, cong Ac As]
+30.8 +18.2 47 +35 +36 очень
душно
1010.1 942.9 +24.0 +33.6
03 21.05 С 3 4000 м 9/4 600 м
[Cu med, cong Ac und]
+28.0 +19.5 60 +34 +34 очень
душно
1011.9 944.7
06 21.05 С 3 4000 м 3/0 2000 м
[Ac As]
+24.0 +18.8 73 +29 +29 душно 1011.8 944.5 +23.0 +33.6
09 21.05 С 3 4000 м 5/5 300 м
[St]
+23.0 +19.0 78 +29 +29 очень
душно
1012.6 944.8
12 21.05 СЗ 2 4000 м ясно +21.0 +18.1 84 +26 +26 душно 1013.2 944.8 +20.0 +33.6
15 21.05 ЮВ 2 10 км 4/4 300 м
[Frnb]
+24.4 +19.6 75 +30 +35 очень
душно
1015.6 946.7
18 21.05 С 2 10 км 6/6 300 м
[Frnb]
+29.8 +18.4 50 +35 +43 очень
душно
1015.0 946.3 +20.0 +30.4
21 21.05 СЗ 3 10 км 6/6 300 м
[Frnb]
+32.6 +18.0 42 +37 +42 очень
душно
1012.7 944.7
00 22.05 СВ 4 10 км 4/4 300 м
[Frnb]
+32.2 +18.6 45 +37 +38 очень
душно
1009.5 942.3 +20.0 +34.2
03 22.05 В 2 4000 м 4/4 300 м
[Frnb]
+28.6 +16.6 48 +32 +32 душно 1010.6 943.7
06 22.05 Ю 3 4000 м 4/4 300 м
[Frnb]
+26.6 +17.2 56 +31 +31 душно 1012.3 945.2 +20.0 +34.2
09 22.05 ЮЗ 1 4000 м ясно +24.4 +17.0 63 +28 +28 душно 1013.0 945.5
12 22.05 СЗ 2 4000 м 8/0
[Ac As]
+24.0 +17.9 69 +28 +28 душно 1014.5 946.4 +23.5
15 22.05 В 1 12 км {дождь} 9/9 300 м
[Frnb]
+22.4 +19.8 85 +28 +29 душно 1015.2 946.7 4
18 22.05 С 1 12 км 9/9 200 м
[Frnb]
+29.0 +20.6 61 +36 +39 очень
душно
1014.6 946.1 4
21 22.05 С 2 12 км 6/6 600 м
[Cu med, cong]
+33.4 +19.7 45 +39 +46 очень
душно
1012.4 944.4
00 23.05 СВ 2 12 км 6/6 600 м
[Cu med, cong]
+33.6 +17.6 39 +37 +38 очень
душно
1009.7 942.5 +21.6 +34.5
03 23.05 В 1 4000 м 8/0 1500 м
[Ac und]
+29.5 +18.2 51 +34 +34 очень
душно
1010.3 943.4
06 23.05 Ю 2 4000 м 8/0 2000 м
[Ac und]
+26.8 +20.0 66 +33 +33 очень
душно
1012.1 945.2 +21.6 +34.5
09 23.05 ЮЗ 2 4000 м ясно +25.0 +19.9 73 +31 +31 очень
душно
1013.1 945.7
12 23.05 ЮВ 1 4000 м 8/8 1020 м
[Sc]
+25.0 +19.9 73 +31 +31 очень
душно
1014.5 946.5 +24.5 +34.5
15 23.05 СВ 2 12 км 1/1 600 м
[Cu med, cong]
+27.2 +20.8 68 +34 +42 очень
душно
1015.8 947.5
18 23.05 СВ 2 12 км 9/5 600 м
[Cu med, cong Ac As]
+30.4 +20.0 54 +37 +42 очень
душно
1015.1 947.0 +24.5 +30.7
21 23.05 С 3 12 км 6/6 600 м
[Cu med, cong]
+34.3 +20.0 43 +40 +46 очень
душно
1012.9 945.4
00 24.05 В 5 12 км 3/3 600 м
[Cu med, cong]
+33.5 +18.7 42 +38 +39 очень
душно
1010.5 943.7 +24.5 +36.3
03 24.05 Ю 3 4000 м ясно +29.0 +18.2 52 +34 +34 очень
душно
1011.7 945.0
06 24.05 Ю 3 4000 м 6/0 2000 м
[Ac trans]
+27.0 +18.5 60 +32 +32 очень
душно
1013.5 946.6 +24.5 +36.3
09 24.05 В 3 4000 м 8/8 300 м
[Frnb]
+26.0 +19.1 66 +31 +31 очень
душно
1015.1 947.7
12 24.05 С 1 4000 м ясно +24.0 +19.7 77 +29 +29 душно 1016.0 948.0 +23.5 +36.3
15 24.05 ЮВ 2 12 км 4/4 600 м
[Cu med, cong]
+27.8 +20.2 63 +34 +39 очень
душно
1016.8 948.4
18 24.05 С 3 12 км 8/8 600 м
[Cu med, cong]
+32.0 +20.3 50 +39 +42 очень
душно
1016.8 948.7 +23.6 +32.6
21 24.05 СВ 3 12 км 4/4 600 м
[Cu med, cong]
+35.8 +18.6 36 +40 +48 очень
душно
1013.7 946.3
00 25.05 СЗ 3 12 км 4/4 600 м
[Cu med, cong]
+35.6 +18.0 35 +39 +40 очень
душно
1011.2 944.5 +23.5 +37.6
03 25.05 СВ 2 4000 м 4/4 600 м
[Cu med, cong]
+31.4 +17.2 43 +35 +35 очень
душно
1012.9 946.4
06 25.05 Ю 3 4000 м ясно +29.0 +17.4 50 +33 +33 очень
душно
1015.8 949.1 +23.5 +37.6
09 25.05 ЮВ 3 4000 м ясно +27.0 +18.7 60 +32 +32 очень
душно
1014.2 947.2
12 25.05 ЮЗ 2 4000 м ясно +25.0 +18.7 68 +30 +30 душно 1015.0 947.4 +24.5 +37.6
15 25.05 ЮВ 1 12 км ясно +29.6 +19.7 55 +36 +46 очень
душно
1016.7 948.7

 

Местоположение метеостанции Monclova (Мексика): широта 26.88 долгота -101.40 высота над уровнем моря 615 м.

В архиве по умолчанию представлена погода в Monclova за последнюю неделю. Архивные данные за месяц целиком и за предыдущие месяцы, начиная с января 2011 года, Вы можете получить, выбрав интересующий диапазон дат из раскрывающегося списка и нажав кнопку "Ввод!".


*Определитесь, кто Вы:
робот инопланетянин человек

Внимание! Время в таблицах - всемирное. Для получения местного времени необходимо прибавить поправку, которая в Monclova равна -6 ч.

Смотрите также архив погоды в соседних городах и на ближайших метеорологических станциях:

Погода в Monterrey (Мексика) (168 км)
Погода в Saltillo (Мексика) (173 км)
Погода в Piedras Negras (Мексика) (221 км)
Погода в Torreon (Мексика) (250 км)
Погода в Hidalgo del Parral (Мексика) (417 км)
Погода в Ciudad Victoria (Мексика) (418 км)
Погода в Sombrerete (Мексика) (424 км)
Погода в Durango (Мексика) (450 км)
Погода в Tepehuanes (Мексика) (464 км)
Погода в Zacatecas (Мексика) (469 км)

Пояснения к столбцам:

Ветер - указаны скорость ветра в м/с - средняя за 10 мин, порывы в срок и между сроками (в фигурных скобках) и направление, откуда дует ветер: С - северный, СВ - северо-восточный, В - восточный, ЮВ - юго-восточный, Ю - южный, ЮЗ - юго-западный, З - западный, СЗ - северо-западный.
Видимость - горизонтальная дальность видимости в метрах или километрах. При видимости от 1 до 10 км при отсутствии осадков обычно наблюдается дымка, при ухудшении видимости до 1 км и менее - туман. В сухую погоду видимость может ухудшаться дымом, пылью или мглою.
Явления - указаны атмосферные явления, наблюдавшиеся в срок или в последний час перед сроком; фигурными скобками обозначены явления, наблюдавшиеся между сроками (за 1-3 часа до срока); квадратными скобками обозначены град или гололедные отложения с указанием их диаметра в мм.
Облачность - указаны через наклонную черту общая и нижняя облачность в баллах и высота нижней границы облаков в метрах; квадратными скобками обозначены формы облаков: Ci - перистые, Cs - перисто-слоистые, Cc - перисто-кучевые, Ac - высококучевые, As - высокослоистые, Sc - слоисто-кучевые, Ns - слоисто-дождевые, Cu - кучевые, Cb - кучево-дождевые. Подробнее классификацию облаков см. в Атласе облаков (PDF).
T - Температура воздуха - температура, измеренная на высоте 2 м над землей.
Td - Температура точки росы - температура, при понижении до которой содержащийся в воздухе водяной пар достигнет насыщения.
f - Относительная влажность воздуха - влажноcть воздуха, измеренная на высоте 2 м над землей.
Te - Эффективная температура - температура, которую ощущает одетый по сезону человек в тени. Характеристика душности погоды. При расчете учитывается влияние влажности воздуха и скорости ветра на теплоощущения человека.
Tes - Эффективная температура на солнце - температура, которую ощущает человек, с поправкой на солнечный нагрев. Характеристика знойности погоды. Зависит от высоты солнца над горизонтом, облачности и скорости ветра. Ночью, в пасмурную погоду, а также при ветре 12 м/с и более поправка равна нулю.
P - Атмосферное давление - приведенное к уровню моря атмосферное давление.
Po - Атмосферное давление - измеренное на уровне метеостанции атмосферное давление.
Tmin - Минимальная температура - минимум температуры воздуха на высоте 2 м над землей.
Tmax - Максимальная температура - максимум температуры воздуха на высоте 2 м над землей.
R - Количество осадков - Количество выпавших осадков за период времени, мм. При наведении курсора мыши на число - период времени, за который выпало указанное количество осадков.
R24 - Количество осадков - Количество выпавших осадков за 24 часа, мм.
S - Снежный покров - Высота снежного покрова, см. При наведении курсора мыши на число - состояние снежного покрова и степень покрытия местности в баллах.